Theta_e
309 308 309 309 309 309 309 310 310 310 310 310 311 310 311 311 311 311 311 311 310 311 310 311 311 311 312 311 310 310 310 310 310 311 314 315 312 312 312 312 312 312 312 312 312 313 313 314 314 313 315 315 315 317 317 316 317 319 321 318 318 319 319 320 320 319 319 319 318 316 317 317 317 316 315 315 315 316 317 316 316 316 315 315 315 315 315 315
309 308 309 309 309 309 309 310 310 310 310 310 311 311 311 311 311 311 311 311 311 311 310 311 311 311 312 311 310 310 310 310 310 312 314 313 312 313 313 312 312 312 312 312 312 313 314 315 314 314 316 316 315 317 318 317 317 320 321 319 319 321 320 320 320 319 319 319 318 318 317 317 317 317 316 315 316 316 316 317 316 316 316 315 315 315 315 314
309 308 309 309 309 309 309 310 310 310 310 310 311 311 311 311 311 311 311 311 311 311 310 311 311 311 311 310 310 310 310 310 311 313 312 312 313 313 313 312 312 312 313 312 313 314 314 315 314 315 316 316 316 316 318 317 317 319 320 319 319 320 319 318 319 318 317 318 319 318 317 317 317 317 317 316 317 317 317 317 317 318 317 317 316 315 315 315
309 308 309 309 309 309 309 309 310 310 310 310 311 311 311 311 311 311 311 311 311 310 310 311 311 311 311 310 310 310 310 311 312 312 311 312 313 313 313 312 312 312 313 312 312 313 313 314 314 315 316 316 316 316 317 316 317 318 317 317 318 318 318 317 317 317 316 317 319 318 316 317 317 316 317 317 317 317 318 318 317 318 317 318 317 316 315 315
309 309 308 309 309 309 309 309 309 310 310 310 311 311 311 311 311 311 311 311 310 311 310 310 311 311 310 310 310 310 310 312 314 312 311 312 313 313 313 312 312 312 313 312 313 312 313 314 314 315 316 317 316 316 317 315 316 317 316 316 317 317 318 316 315 315 315 316 317 318 317 316 317 316 316 317 317 317 318 318 317 317 317 319 318 316 316 315
308 309 309 309 309 309 309 309 310 310 310 310 310 311 311 311 311 311 311 311 310 310 310 310 310 310 310 310 310 310 311 313 314 312 311 311 313 314 313 312 312 312 313 312 313 313 314 314 315 316 316 317 316 316 316 315 315 317 316 316 316 317 317 315 315 314 314 316 317 318 317 316 316 316 317 317 317 318 318 318 317 317 317 317 317 316 316 315
309 308 309 309 309 309 309 309 310 310 310 310 310 311 311 311 311 311 311 310 310 310 310 310 309 309 309 310 310 310 312 314 313 312 312 312 313 313 312 312 313 312 313 313 313 314 314 315 315 316 316 316 316 316 316 315 315 317 317 316 315 315 316 315 314 314 314 316 316 316 316 316 317 317 317 316 317 317 317 317 316 316 316 316 316 315 316 315
309 309 309 309 309 309 309 310 310 310 310 310 310 311 311 311 311 311 311 310 310 311 310 310 309 309 309 309 310 311 313 314 313 313 313 313 313 313 312 312 312 312 313 313 314 314 315 315 315 316 316 316 316 316 316 316 316 317 317 316 316 315 315 314 313 313 313 314 315 315 316 317 317 316 315 316 317 317 317 317 316 316 316 315 315 315 316 315
309 309 309 309 309 309 309 310 310 310 310 310 310 310 311 311 311 311 311 310 310 311 311 310 308 308 309 309 311 313 313 313 313 312 313 314 313 312 312 312 312 313 313 313 313 313 314 315 316 316 316 316 316 316 316 316 316 317 317 316 316 316 315 314 314 314 314 314 314 315 317 317 315 314 315 316 316 317 317 316 316 316 315 315 315 315 315 315
309 309 309 309 309 309 310 310 310 310 310 310 310 310 311 311 311 311 310 310 310 311 310 309 308 308 309 310 311 313 313 312 312 312 313 313 312 312 312 312 313 313 314 313 312 313 314 315 315 315 316 316 317 316 316 317 316 317 317 316 317 317 315 314 315 315 314 315 314 315 317 317 315 314 315 317 317 316 316 316 315 316 316 315 315 315 315 315
309 309 309 309 309 309 310 310 310 310 310 309 310 310 311 311 311 310 310 310 310 310 310 308 308 308 309 310 311 314 313 312 312 312 313 312 312 312 312 313 315 314 314 313 312 313 314 315 314 315 316 316 316 316 316 316 316 316 317 317 317 317 316 315 316 316 315 315 314 315 317 317 316 314 316 318 317 316 316 316 316 316 316 315 316 315 315 315
309 309 309 309 309 309 309 309 309 310 309 309 309 310 310 310 310 310 310 310 309 310 309 308 308 308 309 310 312 315 313 312 312 312 312 312 312 312 312 315 315 314 315 314 313 313 313 314 314 315 316 316 316 316 315 315 316 316 317 317 316 317 317 316 317 316 316 316 315 316 316 317 317 316 317 318 317 317 316 317 317 316 317 316 316 316 316 316
309 309 309 309 309 309 309 309 309 309 309 309 309 310 310 310 309 309 309 309 308 308 308 307 308 308 309 311 313 314 313 312 312 312 312 312 312 312 313 315 315 315 315 314 313 313 314 314 315 315 316 317 317 316 316 316 316 317 317 317 317 316 317 317 318 316 316 316 315 316 315 317 319 319 319 318 317 317 316 317 318 318 318 317 317 316 317 316
309 309 309 309 308 309 309 309 309 308 308 309 309 309 309 308 308 308 307 307 307 307 307 307 308 308 310 313 312 312 313 312 312 312 312 312 312 312 313 315 315 315 315 314 314 314 315 314 314 315 316 317 316 315 317 317 316 318 316 317 317 317 317 318 317 316 316 315 315 316 314 316 319 320 319 318 317 317 317 318 318 318 318 318 317 317 317 317
309 308 308 309 308 309 308 308 308 308 308 308 308 307 307 307 307 306 306 307 307 307 307 307 308 309 310 312 311 313 314 312 312 313 312 312 312 312 313 314 315 315 316 315 315 315 315 315 315 316 316 315 316 317 317 317 317 317 315 315 318 316 316 317 316 316 317 315 316 316 315 317 318 319 318 317 317 316 317 318 318 319 319 319 318 317 317 317
308 308 308 308 308 308 308 308 307 307 307 306 306 306 306 306 306 306 306 306 307 307 307 308 308 309 311 312 311 312 314 313 312 313 312 311 312 313 313 314 314 315 316 316 316 316 315 315 316 316 315 315 317 318 317 316 316 317 315 315 318 316 315 317 315 316 316 315 316 316 316 317 318 319 318 317 316 315 317 318 318 319 319 319 318 318 318 318
307 308 308 307 307 307 307 307 307 307 307 307 306 306 306 307 306 306 306 306 307 307 308 309 308 309 311 312 312 312 312 312 312 312 313 312 312 313 314 315 314 315 316 316 316 316 316 316 315 315 316 316 317 317 316 314 314 316 316 315 317 316 315 315 315 316 316 315 316 316 316 316 317 318 318 318 317 317 317 318 318 318 318 319 319 318 318 318
307 307 307 307 307 307 307 306 306 307 307 308 308 308 308 308 307 307 307 306 307 307 307 309 309 309 310 311 313 314 312 311 311 312 313 312 312 312 314 315 314 315 316 316 316 317 317 316 316 317 316 316 317 317 315 314 314 316 316 314 315 316 314 314 316 316 315 315 316 316 316 316 317 318 318 318 318 318 318 318 318 318 318 318 319 318 318 318
307 307 307 307 307 307 307 307 307 308 308 308 308 307 307 308 308 308 307 307 307 308 309 310 309 311 312 311 312 314 312 311 311 312 312 312 312 312 313 314 314 315 316 316 316 317 318 317 317 317 317 316 316 316 315 315 315 316 317 316 314 315 314 315 316 315 315 315 315 316 316 317 317 317 318 319 319 319 318 319 318 318 318 318 318 318 318 318
307 307 307 308 308 308 308 308 309 309 308 308 307 307 308 309 309 310 309 308 309 312 312 311 310 312 314 312 312 313 312 312 312 312 312 312 312 313 314 315 315 315 315 316 316 316 317 317 317 317 317 317 317 316 316 316 315 315 316 315 315 315 314 316 317 314 315 315 315 316 316 317 317 317 318 318 318 319 318 319 319 319 319 318 319 318 317 318
308 308 308 308 308 309 309 309 309 308 308 307 307 308 310 311 310 311 311 309 310 312 312 312 311 312 313 311 312 313 313 313 313 312 312 312 313 314 315 314 315 314 315 318 317 315 316 316 317 317 317 317 317 317 316 315 315 315 315 315 316 316 315 317 317 314 314 314 315 316 316 317 317 317 318 318 318 318 318 319 319 319 319 319 319 319 318 318
309 308 308 309 309 309 309 309 308 308 307 307 306 308 311 311 310 310 310 310 310 310 310 311 310 311 312 311 311 313 314 314 314 313 312 312 313 314 314 314 314 314 316 316 315 315 315 315 316 317 316 316 316 316 315 315 316 315 316 316 316 317 317 316 316 314 314 314 315 316 316 316 317 317 318 318 318 318 319 318 319 319 319 319 319 319 320 320
310 309 308 308 308 308 309 308 308 307 307 307 307 307 308 309 310 309 310 312 311 310 309 310 310 312 312 312 312 312 314 315 315 314 312 312 314 314 314 314 313 315 316 315 314 315 315 315 316 317 316 315 315 315 315 316 316 316 317 316 316 318 317 314 314 314 314 314 314 315 316 316 317 317 317 318 318 318 319 319 319 319 319 319 319 319 319 320
313 310 309 309 308 308 308 308 307 307 307 307 307 307 307 308 309 309 310 312 312 310 309 308 310 312 312 313 312 312 314 315 315 315 312 312 315 314 315 315 314 315 315 315 314 314 315 315 315 316 315 314 315 315 315 315 315 317 318 317 316 317 317 314 315 316 315 315 314 315 316 316 318 319 319 320 320 319 319 319 319 319 318 317 317 318 317 318
315 314 312 310 309 308 308 307 308 307 307 307 307 307 307 307 308 308 310 311 311 311 310 309 309 310 311 311 312 313 314 313 315 315 313 312 314 313 314 315 315 315 315 314 314 314 315 314 314 315 314 315 315 315 316 316 314 316 319 318 316 316 316 316 318 317 314 314 315 316 315 314 318 320 320 321 320 319 319 319 320 319 318 318 318 317 317 317
318 316 315 313 311 310 308 307 307 307 307 307 307 306 306 307 307 307 309 311 312 312 311 311 311 311 311 311 312 313 313 312 313 314 313 313 314 313 314 314 314 315 315 315 315 315 315 313 314 316 315 317 317 315 316 317 314 314 318 318 317 317 317 317 318 316 313 314 316 316 314 314 316 317 318 320 319 318 318 320 321 320 320 320 320 319 319 318
320 319 318 316 314 311 309 308 308 306 307 307 306 306 307 307 308 308 310 311 312 313 313 312 311 312 312 311 312 311 311 313 313 313 313 313 313 313 313 313 313 314 316 315 314 315 314 313 315 316 316 317 316 316 317 317 314 316 317 317 316 317 318 318 319 317 315 317 317 316 316 315 315 316 317 318 317 317 317 318 320 320 321 321 321 321 320 319
321 320 319 318 317 314 310 309 309 307 307 308 306 307 308 307 308 310 310 311 314 314 313 311 311 312 312 312 312 311 312 313 314 313 313 312 313 313 313 314 313 313 315 314 313 314 315 315 316 316 316 317 316 316 318 317 316 317 316 316 317 318 318 319 318 316 317 319 317 317 318 315 314 316 318 318 317 317 317 318 318 320 320 321 322 322 319 318
321 321 321 320 320 317 314 310 309 308 308 308 307 307 308 308 309 311 310 312 315 313 312 311 311 311 312 312 311 311 311 313 314 314 313 312 313 313 312 314 314 314 314 314 314 316 315 314 315 316 316 316 315 313 316 318 316 315 315 316 317 317 318 318 318 317 317 317 317 319 318 314 313 315 317 319 317 317 317 317 319 320 320 322 323 321 318 317
321 321 321 321 320 319 317 314 311 309 308 308 307 307 308 309 309 310 310 312 315 313 311 311 312 312 312 312 311 311 311 313 314 314 313 313 313 313 313 314 314 315 315 314 315 315 312 311 312 315 315 315 313 311 313 316 316 315 317 317 318 317 317 317 317 316 315 316 317 318 318 313 312 314 317 318 317 317 317 316 319 320 319 322 322 319 317 318
321 320 321 321 320 319 319 318 313 309 308 308 307 308 309 310 310 310 311 312 313 314 311 311 312 312 312 312 311 311 312 314 314 313 313 313 313 313 313 313 314 314 315 315 315 315 314 313 313 314 313 313 314 312 313 314 315 317 318 316 316 317 317 316 317 317 315 315 317 318 318 315 313 314 317 318 318 317 317 317 318 318 319 322 322 319 317 318
320 320 320 320 321 320 320 320 316 309 308 308 308 309 310 311 311 312 312 310 311 314 313 312 313 312 312 313 312 311 312 314 314 314 314 313 313 313 313 313 314 314 314 314 315 316 315 315 315 313 312 313 315 314 313 313 315 317 316 315 315 315 316 316 318 319 317 316 316 316 318 317 314 315 317 318 318 318 318 318 318 318 319 321 322 320 318 317
317 319 320 320 320 320 320 321 318 311 308 308 308 310 312 311 311 312 312 310 312 315 315 314 313 312 312 313 313 312 312 313 314 314 315 315 314 314 313 314 314 314 314 314 315 315 316 317 316 314 312 313 315 315 315 314 314 315 315 316 315 313 314 316 317 317 316 316 315 314 317 317 315 316 317 317 318 318 319 319 319 319 318 319 321 320 319 317
313 316 319 319 319 320 320 320 319 313 308 309 310 311 312 312 312 312 312 313 314 314 314 314 313 313 313 314 314 313 312 314 314 314 315 315 315 316 315 314 314 315 315 315 316 316 315 316 316 315 314 313 315 317 316 316 315 315 316 317 316 314 313 315 315 315 315 315 314 314 316 316 315 316 318 318 318 319 319 319 319 319 317 318 318 319 318 318
312 314 317 318 318 320 320 320 320 314 308 310 312 310 311 312 312 312 313 315 315 313 314 314 313 314 313 314 314 312 312 314 314 314 315 315 315 316 316 315 314 315 315 314 315 316 315 316 317 316 314 314 315 317 318 317 316 315 317 318 317 316 314 313 314 314 314 314 314 314 315 315 316 317 317 318 318 318 319 319 319 319 318 317 317 318 318 318
312 312 314 316 317 318 319 319 320 315 309 311 312 310 310 312 312 312 313 315 315 314 314 313 314 314 314 314 313 312 313 314 315 314 315 315 316 316 316 316 315 315 315 314 314 316 314 315 316 314 314 314 314 316 316 316 315 316 316 317 317 317 315 314 315 314 313 313 314 314 314 315 315 316 317 317 317 317 318 318 318 318 318 317 318 318 317 318
313 312 313 314 315 317 318 319 320 316 311 312 313 311 312 313 314 315 314 314 315 314 314 314 314 314 314 314 314 313 313 314 315 314 315 315 315 315 316 317 315 315 315 313 314 316 314 314 314 313 315 313 310 313 315 314 315 316 316 316 316 316 315 314 314 314 315 315 315 314 314 314 314 315 318 317 316 317 317 317 318 318 318 318 318 318 317 318
314 313 313 313 312 315 317 317 319 315 311 311 313 314 314 314 316 318 316 315 315 315 315 314 314 315 315 314 314 314 313 313 314 314 314 314 314 315 316 316 316 315 315 314 314 316 315 314 313 311 313 313 310 312 314 313 314 315 316 316 315 315 315 314 314 315 315 316 316 315 315 314 314 315 317 317 317 317 317 318 318 318 319 319 319 318 318 318
313 313 313 313 312 313 315 316 316 312 311 311 311 314 316 316 317 318 316 316 315 314 314 314 315 315 315 315 314 314 313 313 315 314 314 315 314 315 316 315 316 316 315 314 313 315 314 313 314 311 311 313 312 312 315 314 313 313 314 315 315 316 316 315 315 314 314 315 316 316 316 315 316 316 316 317 317 317 317 318 319 319 319 320 320 320 319 318
311 312 313 313 313 312 313 314 314 311 310 311 310 312 316 316 317 316 315 316 316 315 315 314 315 315 315 316 315 314 313 314 315 314 314 315 314 315 315 315 315 315 315 314 313 314 313 312 313 312 311 313 313 314 315 315 315 313 313 315 315 315 315 315 316 315 315 315 315 315 316 315 316 317 318 318 317 318 318 318 320 320 320 320 320 320 319 318
310 311 312 313 313 313 313 314 313 310 309 309 309 310 313 315 316 316 315 316 316 317 317 316 316 316 316 316 316 315 314 314 315 315 314 314 314 315 315 315 315 315 315 314 313 314 314 312 313 313 312 314 315 316 316 316 316 314 313 314 315 315 315 315 317 316 315 315 315 315 316 316 317 317 318 318 318 318 319 319 320 321 322 321 320 319 319 318
309 310 311 311 312 313 313 314 312 307 306 309 309 308 311 313 314 315 316 315 315 316 317 317 318 317 317 317 316 316 316 315 316 316 315 315 315 315 316 315 316 316 315 315 314 314 314 313 313 314 315 315 315 314 314 314 316 316 315 315 315 316 315 315 317 316 316 316 316 316 317 317 319 321 319 318 320 319 320 321 320 321 322 321 320 319 319 318
308 309 310 311 312 313 313 314 312 307 306 308 308 308 309 311 313 314 315 314 314 315 316 317 318 318 318 317 317 317 316 316 317 316 316 316 316 316 316 315 316 316 315 315 315 315 314 314 313 314 315 316 314 313 313 313 314 316 316 315 316 316 316 316 316 316 317 317 316 316 317 318 321 325 321 318 319 319 319 320 320 322 322 319 319 319 318 318
307 309 310 310 312 313 313 314 312 309 307 307 307 308 309 310 312 313 313 313 314 315 316 316 317 318 318 317 317 317 317 316 317 317 317 317 317 317 316 315 316 316 315 316 316 315 314 314 314 314 314 316 316 315 314 313 313 314 315 316 316 317 318 318 316 315 317 318 318 317 317 317 320 321 318 316 318 318 317 317 318 320 320 318 318 318 318 318
306 307 308 310 312 313 312 313 313 310 308 308 308 308 309 309 310 311 313 314 314 315 316 316 317 317 318 318 317 318 318 316 317 318 317 317 317 316 316 317 316 315 316 317 316 314 315 315 314 314 315 316 318 318 317 315 314 314 315 316 316 317 318 318 316 316 317 318 319 318 317 317 318 318 316 316 317 317 317 317 316 317 318 318 318 318 318 318
305 305 306 308 311 312 312 312 312 311 310 309 309 309 309 310 310 311 312 314 314 314 315 316 316 317 318 319 318 318 318 318 318 319 318 318 317 315 315 317 317 315 316 315 314 314 317 318 315 315 316 316 318 320 319 317 315 315 315 316 316 317 317 318 317 316 317 317 318 318 318 318 317 317 317 316 316 317 317 318 316 316 317 318 318 318 318 317
304 304 305 307 309 310 311 312 312 312 311 310 310 310 310 310 311 311 311 313 314 314 314 315 316 316 318 318 318 318 318 318 318 318 317 317 317 315 314 314 315 316 315 313 313 315 317 318 317 316 317 316 317 319 320 318 316 316 316 316 317 317 317 319 318 317 317 318 317 317 319 319 318 317 318 317 317 318 318 318 318 317 317 318 318 318 318 317
304 305 305 306 308 309 310 311 312 312 312 311 311 311 311 311 312 312 312 312 313 314 314 314 315 316 317 317 318 318 318 318 318 317 317 317 317 316 314 314 314 314 313 313 313 315 316 317 316 317 317 317 317 318 319 319 318 317 317 317 317 317 317 318 318 317 317 318 317 317 319 319 318 317 318 318 318 318 318 318 318 318 318 318 318 318 317 316
303 305 305 306 308 309 310 311 312 312 312 312 312 312 312 312 312 312 312 312 312 313 314 314 313 314 315 316 317 317 318 318 318 318 317 317 317 316 315 316 314 312 312 314 314 313 315 315 315 317 317 317 317 318 318 320 319 318 318 318 317 317 317 317 317 317 318 317 317 318 318 319 318 318 318 319 319 319 319 318 318 318 318 318 317 317 317 316
303 304 305 306 307 308 309 310 311 311 312 312 312 312 312 312 312 312 312 312 312 313 313 313 313 313 314 315 316 317 317 317 318 318 317 317 317 316 316 316 315 312 311 314 314 312 312 315 317 317 317 317 318 317 318 320 320 320 320 319 318 318 318 318 317 317 318 318 317 318 318 319 318 318 319 319 319 319 319 319 318 318 318 317 317 317 317 317
302 303 305 306 306 307 308 309 309 310 311 311 311 311 311 312 312 312 312 313 313 313 313 313 313 313 314 315 315 316 316 316 317 317 317 317 317 316 316 315 315 314 312 311 313 312 312 314 317 316 316 317 317 317 319 320 320 319 319 319 319 319 319 319 318 318 318 318 318 318 319 318 318 318 318 318 319 319 319 319 318 318 318 318 317 317 317 318
301 302 303 304 305 306 306 307 308 309 310 310 310 311 311 312 312 312 313 313 313 313 313 313 313 314 315 315 315 315 315 315 316 315 316 316 315 315 315 313 312 315 314 311 311 312 312 313 314 315 316 317 317 318 319 319 318 318 318 317 317 318 319 319 318 318 318 318 318 318 318 317 317 317 318 318 318 319 319 319 318 318 318 318 318 317 317 317
Wind_Speed
21 21 21 20 20 19 19 19 18 17 16 15 15 14 14 14 14 14 13 13 13 13 13 13 12 13 12 11 10 9 7 6 6 6 7 7 9 9 8 7 6 6 5 5 5 4 5 4 4 5 3 4 4 4 5 5 5 4 4 5 4 4 3 3 4 2 1 3 8 11 12 10 6 8 8 6 9 8 6 7 8 10 10 11 8 6 6 8
22 22 22 21 21 20 20 19 18 17 16 15 15 14 13 13 13 13 13 13 13 13 13 13 13 13 12 11 10 9 7 7 6 7 8 8 9 9 7 6 5 5 5 5 5 4 4 4 5 6 4 5 3 4 5 4 5 3 3 5 3 1 3 3 1 3 3 1 6 10 10 9 4 7 9 6 8 10 9 9 10 10 10 13 14 12 10 8
23 23 22 22 21 21 20 19 19 18 16 16 14 14 13 13 13 13 12 12 13 13 13 13 13 13 12 11 10 8 7 6 6 8 10 9 9 8 7 6 6 5 5 5 5 6 5 4 6 6 5 5 3 5 5 4 5 2 3 5 0 4 5 5 4 6 5 3 4 8 8 7 3 5 7 7 8 9 10 10 10 11 12 14 16 15 14 11
24 23 23 23 22 21 20 19 19 18 17 16 15 14 13 13 13 12 12 12 13 13 13 13 13 13 12 11 10 8 6 5 7 10 10 9 9 8 7 7 7 6 6 5 4 5 6 6 6 6 6 5 5 5 4 4 4 2 3 2 3 2 2 5 4 6 6 3 3 6 6 7 4 4 6 7 8 7 10 12 11 11 10 14 16 15 16 15
24 24 24 24 22 21 21 20 19 18 17 16 15 15 14 13 13 12 12 12 13 13 13 13 13 13 12 12 9 8 8 4 7 12 11 10 9 8 8 8 8 7 6 5 4 5 6 6 6 6 7 5 6 6 4 4 3 2 1 3 5 1 1 4 3 4 5 4 4 5 5 6 5 5 8 9 10 5 4 7 10 9 5 8 13 12 13 16
24 24 25 24 23 22 21 20 19 18 17 16 16 15 14 14 13 13 13 13 13 14 13 13 13 13 12 12 10 11 9 2 6 14 11 10 10 9 9 9 9 7 6 5 4 5 6 7 8 7 6 5 6 5 4 5 5 2 2 3 4 4 3 4 2 4 3 3 3 4 3 3 4 7 9 12 16 8 4 4 6 8 7 7 10 12 13 15
24 25 25 24 23 23 22 21 20 18 17 17 16 15 15 14 13 13 13 13 14 14 14 13 13 13 13 13 11 12 10 4 5 13 11 11 10 9 10 9 9 7 6 4 3 4 6 8 8 7 6 3 4 4 4 5 5 4 2 6 4 5 5 4 2 4 3 1 1 1 2 4 7 7 5 12 20 15 12 13 10 9 10 10 11 13 13 14
24 26 26 25 24 23 23 21 20 19 17 16 16 15 15 14 13 13 13 13 14 14 14 13 13 14 14 14 11 10 10 5 6 12 11 11 10 9 10 8 8 7 6 6 5 5 6 8 7 7 5 2 3 5 5 5 4 4 3 7 4 5 5 5 4 4 4 1 2 2 5 5 5 4 5 15 20 15 16 19 18 16 14 14 13 13 13 14
24 26 27 26 25 24 24 22 21 19 17 16 16 15 14 14 13 13 13 14 14 14 14 13 13 13 14 13 9 7 8 7 7 12 12 11 11 10 8 6 6 6 6 7 7 6 6 6 7 6 2 3 4 6 4 4 2 1 5 7 5 6 6 5 5 5 3 2 2 3 6 3 2 5 10 20 21 16 17 20 22 21 19 19 17 17 16 16
25 26 26 26 26 25 24 23 21 19 18 16 16 15 14 14 13 13 14 14 15 14 14 13 13 14 13 11 8 6 7 9 9 11 12 12 11 10 7 5 5 4 4 6 8 8 6 5 6 5 2 4 5 4 2 2 1 5 8 7 6 6 5 4 4 5 3 2 3 4 5 4 2 4 8 11 13 16 18 20 22 22 21 21 20 20 20 20
23 24 24 24 24 24 24 22 21 19 17 16 16 15 14 14 14 14 14 14 15 14 14 13 13 13 12 11 9 6 8 10 10 12 13 12 11 9 6 4 4 4 3 5 8 9 7 6 8 6 3 6 6 4 2 2 3 6 8 7 6 4 5 5 4 6 4 3 4 4 6 7 3 5 12 9 7 10 11 12 14 17 19 19 19 21 23 23
20 21 22 22 21 21 21 20 19 18 16 16 15 15 14 14 14 14 15 15 15 14 14 13 13 13 12 11 9 5 9 12 11 12 13 12 10 8 6 4 5 5 4 4 7 8 7 9 9 4 4 8 7 5 4 5 4 5 5 4 6 4 4 7 5 4 4 2 3 1 6 10 10 13 19 14 12 12 10 9 10 12 15 16 17 19 21 22
19 21 21 20 19 19 19 18 17 16 15 15 15 15 14 14 14 15 15 15 14 14 14 14 13 13 12 9 7 6 10 12 11 13 13 12 10 7 6 5 5 5 6 5 8 9 9 11 8 4 7 5 3 5 6 6 4 5 3 2 4 5 5 8 6 4 4 3 5 2 5 6 9 15 15 12 15 14 12 13 12 13 14 15 18 20 21 21
19 20 20 20 19 19 18 17 17 16 15 14 14 15 14 14 14 15 15 15 14 14 14 14 14 14 11 6 6 9 10 11 13 14 14 13 11 8 6 6 5 6 6 6 8 9 9 9 6 7 7 4 6 8 7 5 3 4 2 2 3 4 3 7 6 5 5 4 6 3 5 6 4 5 8 10 14 12 12 13 13 13 12 13 17 19 21 22
19 19 19 19 19 18 17 16 15 15 14 14 14 14 13 14 14 14 15 14 14 14 14 14 14 13 9 5 7 11 12 11 12 14 15 14 11 8 7 7 5 6 6 6 8 8 9 9 6 6 7 7 10 8 4 4 3 3 3 3 4 3 3 7 4 6 4 3 8 6 4 7 6 4 5 8 11 11 12 12 12 13 12 12 15 17 19 20
19 19 18 18 18 17 16 15 14 14 14 13 13 12 13 13 13 13 14 14 14 14 14 13 14 12 7 5 9 12 13 12 12 14 15 15 13 9 9 8 6 6 7 6 7 8 10 8 7 7 7 7 6 4 4 4 3 4 4 3 4 5 4 5 3 4 2 2 8 10 5 5 3 3 1 5 6 8 10 11 12 13 12 13 14 17 20 20
20 20 19 18 18 17 16 16 15 15 13 13 12 12 12 12 12 12 13 14 13 14 13 11 13 11 5 5 8 11 15 15 13 14 15 16 14 11 10 8 7 7 7 7 7 7 6 6 7 6 4 4 4 4 4 4 5 5 5 4 3 5 4 3 3 4 4 3 6 10 9 9 8 5 6 7 7 8 10 14 16 16 16 15 14 16 22 23
21 21 21 20 19 18 18 17 16 15 12 12 11 11 12 11 12 12 12 14 13 13 12 10 12 8 5 8 10 11 17 18 15 15 15 16 15 13 11 9 8 8 7 6 5 4 3 5 4 3 3 4 4 5 6 3 3 4 5 5 4 4 6 4 2 5 6 5 7 9 10 13 14 14 15 15 14 14 15 18 20 20 19 18 17 17 22 27
21 21 21 21 20 20 19 18 17 15 14 13 12 12 12 11 11 11 14 16 14 9 6 10 14 5 1 13 16 14 17 17 16 16 16 17 15 13 11 9 9 8 7 5 5 4 3 4 4 3 5 6 7 7 5 1 3 2 2 3 4 3 5 2 4 4 4 4 7 10 12 13 13 14 16 17 17 18 20 20 20 20 19 18 19 20 24 29
20 21 22 21 21 21 19 19 18 16 16 15 15 15 12 12 9 7 13 16 15 8 2 11 16 4 2 13 18 15 15 15 15 16 17 18 16 13 10 9 9 7 6 4 4 4 3 4 5 6 5 6 9 7 1 3 3 2 1 3 4 3 4 3 7 4 2 4 8 9 12 14 14 12 14 17 18 20 21 21 21 20 18 18 20 24 28 31
20 21 22 21 21 21 20 20 18 18 18 17 20 17 9 12 7 5 13 12 15 14 4 10 16 7 2 10 16 14 12 12 13 17 18 18 18 13 10 11 8 6 5 3 4 4 3 4 7 6 1 2 3 3 1 0 2 3 4 4 4 5 4 3 6 4 3 2 7 8 11 15 15 13 14 17 17 19 23 22 22 21 18 18 20 24 26 27
20 20 21 22 21 21 20 20 19 18 19 19 22 16 9 13 7 5 12 8 14 20 9 7 14 10 4 7 15 15 10 8 10 16 18 18 18 12 10 12 9 6 7 5 4 3 4 7 8 4 5 6 3 2 3 4 3 4 4 4 3 3 3 2 6 4 3 2 6 8 10 13 16 15 16 19 19 21 26 24 22 19 17 20 21 20 19 19
19 20 21 21 21 22 21 21 20 20 21 20 22 16 11 14 8 6 10 3 7 19 15 10 9 9 8 7 13 15 11 7 8 15 20 19 16 11 10 12 10 6 7 8 7 5 5 5 3 5 7 4 3 3 5 4 4 5 4 4 4 0 2 2 3 3 5 4 6 10 10 11 15 15 16 22 24 23 24 23 21 19 21 26 27 22 20 19
18 20 20 21 21 21 21 22 22 22 22 20 20 17 11 12 10 7 8 2 1 10 15 16 11 9 11 9 11 14 10 6 7 14 23 21 14 10 10 11 11 8 7 10 11 9 5 1 3 5 4 4 4 5 6 5 5 6 6 6 5 2 3 3 2 2 6 5 3 8 9 8 9 10 10 12 14 16 18 18 18 21 25 29 29 27 26 25
12 15 18 20 20 20 21 22 23 23 23 21 18 16 12 11 10 7 6 3 2 5 9 14 13 11 15 13 10 10 7 6 7 12 22 21 13 9 7 6 8 8 10 11 10 11 5 4 4 4 4 5 6 6 7 7 5 5 7 8 9 7 5 4 5 6 5 3 2 3 7 4 2 4 6 4 5 9 11 12 14 19 22 22 24 26 27 26
7 9 12 16 17 20 20 18 22 24 23 22 18 16 14 11 9 7 5 2 3 5 5 9 10 10 14 13 12 9 4 7 10 11 21 22 14 10 6 4 3 5 8 8 5 6 2 4 3 5 6 6 6 6 7 7 6 5 3 4 7 7 4 4 5 4 4 4 1 2 5 6 3 5 8 7 7 10 9 8 12 16 16 14 17 20 20 20
10 8 9 11 15 19 18 15 21 25 22 20 19 18 15 12 10 7 5 3 4 7 8 8 9 9 10 11 16 12 2 7 11 10 20 23 15 10 7 6 5 2 2 4 3 2 5 6 4 5 6 6 6 6 6 9 7 3 1 3 1 2 3 2 3 3 4 7 4 6 5 8 8 7 11 13 11 12 11 9 11 15 14 12 12 11 11 13
15 12 10 11 11 14 17 15 19 25 23 19 21 20 16 14 12 7 4 5 3 7 7 6 9 9 10 13 17 9 3 9 8 9 21 22 16 10 8 8 8 7 8 6 6 1 4 7 8 8 8 6 5 1 3 10 7 1 2 2 3 2 0 1 2 4 3 6 6 6 6 6 8 4 7 13 12 10 10 10 10 12 11 10 8 7 9 10
19 18 16 13 9 10 14 15 16 22 22 19 21 21 18 17 12 5 3 4 3 5 4 8 10 9 11 14 12 5 5 5 0 8 20 19 15 9 4 6 8 9 10 8 6 1 3 1 4 7 7 5 3 6 2 5 3 3 4 4 5 3 2 1 3 4 2 6 7 6 8 4 9 7 5 7 8 8 8 9 8 8 7 5 5 7 10 8
23 22 20 17 15 15 15 14 14 18 20 19 21 22 20 16 8 5 5 4 4 4 5 7 9 9 14 13 8 6 6 2 4 12 12 9 12 7 2 4 4 4 6 5 4 2 3 2 0 3 2 2 6 7 5 2 5 8 7 4 4 3 1 1 3 1 2 7 5 8 12 5 7 7 6 8 7 8 7 5 6 6 5 4 5 6 7 5
25 25 24 24 23 20 17 15 15 18 20 20 24 25 19 9 3 7 6 1 1 4 6 6 7 11 17 14 8 8 7 3 8 14 8 5 8 6 5 5 2 3 3 4 4 3 3 2 2 2 2 5 7 6 5 4 5 6 4 3 2 2 2 2 3 3 4 7 1 5 8 7 7 5 5 8 8 8 6 5 7 7 6 4 5 7 7 5
25 27 28 28 27 23 18 15 13 16 20 25 29 26 14 5 3 8 6 4 1 6 8 8 9 11 16 14 8 9 8 6 10 12 8 8 8 8 10 8 7 6 5 7 6 3 4 5 4 4 3 5 6 5 4 2 3 4 4 5 4 4 3 4 5 4 6 5 2 3 3 6 11 9 5 7 7 7 7 6 8 9 8 7 7 10 11 8
20 25 31 33 31 29 22 14 12 16 23 31 30 18 6 5 6 9 9 5 2 3 6 8 10 12 15 13 8 9 8 6 10 9 7 9 8 9 12 12 12 9 5 7 7 4 4 3 5 5 2 7 9 5 5 4 5 7 7 7 6 5 5 6 6 4 5 3 3 4 3 5 10 8 10 15 14 13 12 10 10 12 14 14 11 14 16 15
16 20 32 38 34 29 22 16 14 16 26 33 23 9 5 7 8 10 13 8 3 3 5 8 11 12 14 9 6 11 7 4 10 8 6 9 7 8 11 12 15 10 3 5 6 7 7 4 8 9 6 11 12 7 5 5 7 9 7 6 6 6 6 6 5 5 6 2 2 5 3 5 5 2 3 8 9 12 16 14 13 15 21 23 21 22 22 22
18 18 27 37 37 30 24 22 18 17 29 32 15 5 8 8 7 11 11 6 5 4 6 10 11 11 10 4 3 9 4 2 11 9 6 10 8 8 10 10 14 11 6 6 4 6 9 6 6 6 7 16 14 5 3 4 5 6 3 4 6 5 5 5 2 1 2 4 2 5 4 5 4 3 3 1 1 8 12 13 12 15 22 26 26 29 30 29
19 19 22 30 37 35 28 27 23 22 31 27 10 7 10 8 7 8 6 7 7 8 10 10 8 7 9 4 2 7 1 1 9 8 5 9 8 9 10 9 14 14 11 8 3 4 6 3 4 3 4 10 7 1 2 2 2 4 4 5 2 2 2 4 2 3 2 5 6 5 7 7 7 10 9 10 9 10 9 9 11 15 23 26 26 30 34 32
16 18 20 24 30 33 33 32 26 26 29 18 8 10 10 9 7 4 5 9 13 15 11 7 6 7 9 6 5 9 5 3 8 7 6 7 6 10 12 9 13 17 16 12 4 2 4 2 2 3 3 3 1 3 1 2 1 3 4 5 3 3 1 4 5 2 3 8 6 6 10 10 7 7 6 12 14 13 10 9 11 15 20 22 25 32 34 30
11 14 19 23 25 26 32 35 30 30 25 10 7 12 9 8 6 3 5 9 14 15 9 7 7 7 9 7 7 11 10 7 9 8 7 6 5 11 14 10 11 17 21 17 6 2 5 4 1 1 0 3 3 1 3 1 1 0 1 2 3 2 4 5 6 5 7 8 6 8 12 10 9 7 4 10 13 12 12 12 11 13 15 18 24 30 28 24
10 9 13 20 24 23 25 30 31 29 19 8 9 10 7 7 4 3 4 7 12 12 10 10 9 7 9 8 7 11 11 10 10 8 7 7 5 10 15 11 9 15 20 18 8 2 4 6 3 0 1 4 5 5 7 5 3 1 3 2 2 2 4 5 5 4 5 7 6 8 10 9 9 10 10 13 14 13 13 11 9 11 16 18 19 21 20 20
10 7 6 12 20 22 23 24 25 20 8 6 10 5 2 5 3 4 3 3 7 7 8 12 12 9 10 10 9 10 10 10 10 8 8 9 7 8 13 13 9 11 18 18 11 3 4 6 4 1 0 3 5 8 10 10 8 5 6 7 5 2 1 3 4 5 4 5 6 7 10 10 6 5 9 12 12 11 11 9 8 11 17 18 16 17 19 17
10 6 6 9 15 21 25 21 14 8 2 3 6 4 3 3 2 4 3 1 1 1 2 7 11 11 10 11 11 10 9 9 10 9 7 10 10 7 11 16 12 11 13 13 11 8 6 6 6 4 3 7 7 5 6 7 8 9 9 10 11 9 5 4 6 5 2 4 6 5 9 12 4 2 4 6 5 7 9 8 8 11 14 13 14 17 18 15
11 6 5 9 14 21 26 16 5 4 2 3 3 3 4 2 1 4 3 0 0 2 1 2 6 9 10 11 12 10 10 8 10 11 8 11 14 9 11 18 19 19 14 9 12 13 7 4 6 6 5 6 3 2 1 1 2 5 6 7 9 9 8 8 7 4 4 5 6 5 9 12 2 5 1 2 3 3 6 7 7 9 10 10 13 16 16 15
13 10 5 8 15 23 22 9 3 5 2 3 3 5 7 4 2 3 3 2 1 0 3 2 3 6 9 11 12 12 11 9 11 13 11 11 13 10 12 19 20 19 14 8 9 9 5 3 7 7 4 3 3 2 1 1 1 5 5 3 5 8 9 7 3 2 4 6 6 5 9 11 2 4 1 2 4 3 4 7 9 7 8 11 13 16 17 18
12 12 8 6 12 23 19 5 5 8 4 4 5 7 9 6 5 5 6 6 5 2 2 3 2 3 4 5 7 10 12 9 10 13 12 9 7 6 14 21 18 15 12 9 10 11 7 5 6 6 6 5 5 4 4 3 3 5 6 5 7 10 9 3 0 2 4 9 12 8 9 11 2 3 1 2 4 5 6 9 11 9 9 13 15 17 19 21
8 9 10 10 14 23 20 8 5 7 7 8 7 8 9 5 8 12 10 7 7 5 1 2 1 1 1 2 2 4 10 10 9 10 10 9 4 3 9 17 18 15 11 8 13 16 9 6 8 8 8 9 8 6 5 6 5 4 7 10 12 14 13 7 3 5 8 13 14 9 10 14 5 4 4 3 4 6 7 8 11 14 15 14 15 18 20 23
8 7 7 10 17 23 22 18 11 6 7 9 6 7 11 7 7 14 13 7 7 9 5 2 1 1 0 1 1 2 6 8 6 4 7 9 4 2 4 10 15 17 9 5 12 13 3 3 10 11 12 13 10 4 6 10 9 9 12 15 15 16 17 11 6 9 12 12 11 11 14 19 17 7 6 4 6 8 8 8 10 15 17 14 14 18 22 26
9 7 7 8 10 13 15 18 16 8 9 11 6 6 13 13 8 10 13 11 9 11 8 4 4 4 3 5 5 4 5 7 6 4 7 7 2 3 2 5 9 13 7 4 10 9 1 4 12 16 17 17 15 10 8 13 13 15 16 16 17 18 18 14 12 15 15 10 11 15 16 18 24 18 10 7 7 7 8 10 11 13 15 14 14 19 24 28
11 8 12 12 7 6 8 14 16 12 11 13 8 6 12 15 11 9 11 12 9 10 8 5 8 11 9 8 7 6 7 7 8 8 7 5 3 3 3 2 4 7 6 4 6 5 1 5 11 14 17 18 19 17 11 12 13 15 16 18 19 20 20 18 19 21 19 13 12 16 15 17 23 22 13 11 10 10 13 15 13 13 14 14 17 21 26 30
14 10 11 12 8 5 6 12 16 15 12 11 8 9 11 14 15 13 9 8 8 11 11 7 11 16 15 12 8 7 8 7 7 9 7 5 4 3 3 3 2 3 4 4 3 2 2 6 10 12 13 16 18 18 14 13 13 13 16 18 20 21 23 23 23 23 22 19 17 18 18 19 22 20 12 11 14 13 14 15 15 15 16 17 19 21 25 30
17 12 8 9 8 5 4 9 13 12 11 10 8 9 12 15 17 15 11 11 9 10 13 14 14 15 15 14 10 9 11 9 9 10 7 6 5 4 4 3 1 1 3 3 1 0 3 6 7 7 9 14 17 18 15 13 13 12 13 14 17 21 23 24 22 18 17 18 19 22 22 20 19 15 12 17 19 13 11 13 14 15 17 18 21 24 27 31
22 16 10 7 7 7 6 7 9 9 9 10 8 8 12 16 18 15 13 16 14 10 14 19 16 10 11 13 12 14 16 14 13 12 7 5 5 5 4 2 3 3 2 3 2 1 4 3 2 3 6 11 16 16 10 4 4 7 10 11 17 20 18 17 15 13 14 16 18 19 18 16 15 12 10 17 19 14 14 15 15 19 24 24 25 28 30 32
26 21 15 8 6 9 9 6 8 9 8 8 10 11 12 15 18 16 10 14 19 17 18 20 15 8 8 12 16 22 26 22 21 20 13 8 7 5 4 5 7 6 4 3 1 1 3 3 3 4 5 10 16 10 3 5 1 6 12 17 19 18 13 10 12 17 20 17 14 14 13 14 17 14 11 15 15 13 14 18 21 25 28 27 27 30 32 34
Wind_Direction
190 192 193 194 191 190 190 189 192 191 193 194 195 196 195 195 194 196 196 197 197 195 196 194 192 189 187 187 185 182 179 182 182 181 190 201 197 184 180 180 180 175 166 166 159 147 141 159 170 152 154 166 159 160 175 170 166 188 216 227 225 204 184 152 176 145 76 110 141 160 174 192 174 172 201 214 221 228 233 216 217 229 223 233 238 216 209 197
190 193 193 195 193 192 192 191 192 192 194 196 197 198 198 199 199 199 198 198 198 197 197 194 192 188 187 188 185 183 182 183 180 192 204 197 189 185 181 175 174 173 168 167 159 159 169 184 179 170 179 175 159 161 170 166 178 219 246 228 236 127 84 53 64 86 50 43 148 161 178 201 179 160 186 210 218 211 228 227 217 231 227 231 237 226 219 209
193 192 192 196 196 194 193 193 193 193 195 196 198 200 200 202 202 203 202 200 199 198 197 194 191 188 188 188 184 182 181 186 190 204 206 191 188 188 181 173 166 165 166 163 161 184 196 187 179 183 193 183 165 171 172 180 193 235 255 233 171 82 77 57 54 73 58 29 156 165 172 196 179 144 177 218 234 214 229 232 213 222 220 225 235 229 224 223
197 192 192 197 197 195 194 194 194 194 195 196 198 201 202 205 206 206 206 203 200 199 197 194 190 187 188 186 183 179 177 194 208 211 204 190 190 185 179 173 163 158 152 146 147 177 182 180 182 186 201 185 158 179 179 176 193 196 233 275 45 79 91 78 74 76 67 49 162 152 158 195 183 159 189 221 242 227 234 237 226 231 226 216 226 234 232 232
199 193 194 197 196 195 195 195 196 196 197 197 198 201 203 205 207 209 208 207 203 199 197 194 190 188 187 183 179 173 175 189 201 206 202 190 190 186 184 178 171 162 146 135 125 162 172 178 180 186 208 182 160 187 167 161 205 185 177 25 41 10 78 88 95 104 83 72 137 149 166 187 169 193 217 224 236 238 250 238 223 236 244 203 215 238 242 239
201 195 195 196 196 196 195 196 197 199 198 198 200 200 203 205 207 209 209 209 205 200 197 194 190 188 185 181 179 177 188 223 188 193 195 191 190 187 188 185 182 173 159 139 126 165 172 181 187 192 205 180 176 190 127 158 212 214 133 95 58 26 72 94 115 153 118 82 145 168 176 170 185 221 224 228 236 244 302 263 214 227 244 229 234 247 248 245
201 197 196 195 195 196 196 196 198 201 200 200 201 202 204 205 207 209 209 209 205 200 196 194 192 188 184 182 183 190 210 274 201 187 187 188 187 187 191 190 190 186 179 162 153 188 184 195 202 198 196 173 179 167 119 163 217 260 135 123 87 53 82 90 116 170 155 135 192 193 233 224 227 233 220 236 241 243 263 265 246 239 244 241 244 249 249 250
201 198 197 195 196 196 196 197 198 201 201 202 203 204 206 206 208 209 209 208 204 201 195 195 193 187 184 183 186 201 214 236 204 185 181 186 184 186 191 193 199 198 201 198 196 200 198 206 203 198 197 146 152 149 146 175 211 258 133 125 114 86 94 95 111 145 140 188 226 215 243 239 234 254 259 251 249 245 252 259 257 254 255 249 245 248 249 250
204 200 198 196 196 196 196 197 199 201 201 204 206 207 209 208 210 209 208 206 202 201 196 196 194 187 186 184 192 210 204 207 200 183 180 183 179 181 184 190 201 204 217 214 201 195 204 210 197 204 195 108 144 146 172 210 201 130 123 127 127 109 105 112 122 125 129 164 173 213 233 226 224 264 265 254 251 247 242 248 256 256 255 255 251 251 250 250
206 204 201 198 196 196 197 198 199 202 203 206 209 210 212 212 213 210 206 203 200 200 196 197 192 187 186 183 202 215 188 191 187 176 177 174 173 176 174 181 186 190 216 213 202 196 207 214 192 194 132 119 149 139 197 256 79 109 121 120 116 118 121 131 142 142 149 149 177 237 247 233 203 231 255 249 238 239 241 244 252 255 251 252 253 252 253 252
207 206 206 202 201 199 199 201 203 205 207 209 211 212 214 214 214 210 204 201 200 198 196 196 189 188 186 184 212 217 176 183 177 169 169 167 172 175 169 171 164 156 183 211 202 192 206 205 184 185 162 152 143 111 90 88 100 122 130 124 117 126 139 162 163 155 182 159 175 253 278 260 212 212 244 240 223 227 232 239 246 252 249 247 249 250 253 253
208 207 209 206 206 204 203 205 207 210 212 213 214 215 216 215 213 208 203 200 198 197 196 194 186 186 186 193 225 220 175 180 175 168 167 167 171 170 163 157 151 144 144 195 196 185 190 175 169 170 140 157 149 125 114 104 104 130 154 161 143 171 185 183 173 154 205 174 136 242 278 256 220 227 243 233 233 236 231 239 241 250 252 248 248 249 253 254
204 205 207 207 207 207 207 209 211 213 214 214 216 216 216 214 211 206 202 199 197 196 193 191 186 184 188 200 225 211 183 183 178 173 170 172 171 164 162 154 149 141 137 171 175 165 172 166 168 155 133 148 139 123 119 109 122 146 182 262 161 202 205 178 169 149 204 167 130 205 269 259 218 225 234 218 230 240 242 250 247 249 252 252 256 256 258 257
199 201 202 203 205 207 209 211 212 213 212 214 214 214 214 211 209 205 201 196 194 192 189 188 184 183 192 206 209 198 188 182 183 181 176 176 175 169 164 157 153 144 138 158 158 152 160 156 162 158 139 116 114 127 127 126 173 161 163 258 209 229 171 151 165 169 195 170 148 204 258 274 263 190 187 208 231 239 246 254 252 251 247 248 261 266 265 262
190 195 197 199 202 205 208 209 210 208 207 209 209 209 208 205 204 201 198 194 190 189 186 186 182 183 197 213 200 191 183 178 184 186 182 179 174 171 169 161 153 145 138 145 147 142 142 137 139 140 119 117 136 150 155 154 192 183 186 212 204 234 148 135 163 183 198 160 167 199 247 260 264 123 149 227 236 233 244 254 255 254 248 245 257 270 271 266
180 185 190 194 196 198 199 199 199 198 198 201 201 201 198 198 196 193 193 188 186 186 181 184 184 187 203 203 195 194 189 186 185 184 187 184 175 174 172 158 153 149 141 141 139 133 134 132 129 127 122 139 167 189 174 173 194 193 226 227 176 211 196 146 156 188 199 134 180 211 252 270 244 115 160 268 241 221 239 255 257 256 255 250 251 265 273 271
176 178 181 185 188 188 187 187 189 189 192 194 192 192 189 187 186 185 185 182 183 182 179 182 183 192 226 204 189 197 199 196 187 183 188 187 180 175 169 156 156 149 140 141 135 130 128 129 133 135 163 194 207 207 192 209 209 190 219 241 201 216 230 184 143 153 183 210 214 218 237 258 265 269 263 264 246 227 244 260 264 264 261 258 252 258 269 270
174 175 176 178 180 180 181 184 186 187 188 184 182 184 182 180 179 177 176 176 173 172 180 182 175 191 230 201 192 197 201 199 191 186 184 185 181 176 172 163 156 147 146 151 140 145 144 149 170 174 189 200 201 206 210 226 238 209 197 219 225 213 234 246 154 149 177 211 236 231 237 249 257 264 263 260 253 246 254 262 265 265 262 259 254 251 261 268
173 173 172 174 177 178 179 180 182 183 178 173 171 169 167 165 168 174 175 173 168 166 186 182 180 201 183 182 192 198 199 195 187 184 180 182 180 174 175 168 160 160 172 179 155 159 166 166 207 216 191 199 202 213 228 338 355 307 190 239 252 221 232 212 114 137 185 223 241 243 252 257 255 259 261 261 260 258 260 262 262 262 260 256 252 250 257 265
175 175 172 174 178 177 177 177 178 178 173 170 163 155 153 155 154 171 180 182 188 198 224 177 186 225 71 171 188 188 185 183 181 185 183 182 174 165 168 162 164 184 203 199 146 152 204 203 204 212 215 212 203 207 270 27 12 328 296 268 252 259 263 139 113 126 171 252 256 251 259 266 264 261 263 265 266 265 262 259 257 256 253 250 249 253 259 265
179 179 177 177 179 178 177 176 177 176 173 171 164 157 157 170 169 173 177 194 213 215 218 178 190 209 145 176 184 170 161 168 178 187 186 179 171 165 171 171 180 198 182 124 109 138 207 228 222 218 177 82 167 167 82 7 286 265 260 261 242 247 256 119 108 135 153 238 266 267 270 270 268 266 263 262 260 259 258 256 255 256 255 253 250 253 260 264
184 184 182 181 181 179 179 177 176 175 174 174 171 168 173 183 191 175 174 201 219 214 224 196 197 208 194 182 183 172 155 156 176 189 185 174 176 182 175 181 204 194 152 135 142 164 208 233 228 189 100 83 92 127 207 232 248 245 243 257 253 246 256 115 103 125 166 222 275 285 283 274 272 271 262 254 248 249 252 254 259 264 263 259 254 252 254 255
186 185 184 185 184 183 182 179 177 176 177 178 178 180 181 186 191 172 180 209 211 211 224 217 203 209 202 185 184 181 174 170 171 184 185 175 182 197 179 187 212 187 161 187 201 206 216 226 208 123 115 132 136 162 200 214 229 235 237 246 243 181 288 242 117 145 193 220 291 296 287 273 267 265 259 253 248 248 253 257 262 263 260 259 259 258 256 252
186 185 185 185 183 185 185 182 181 180 181 183 184 185 181 185 186 172 188 237 204 205 220 222 217 209 203 194 187 188 195 196 171 182 189 180 175 192 189 198 212 198 192 204 211 227 224 94 82 119 147 187 177 173 196 217 230 227 225 239 254 285 288 273 2 313 230 212 274 287 281 268 249 246 253 256 249 248 251 254 256 253 255 261 264 265 263 262
189 186 185 184 182 183 185 187 186 184 186 188 187 185 178 177 177 172 189 235 239 192 211 221 221 218 214 209 190 184 205 208 181 188 190 183 176 181 184 203 213 213 211 204 216 237 226 92 117 151 162 194 196 196 203 219 241 228 217 229 251 283 309 305 337 334 281 230 180 278 294 283 183 227 252 246 234 239 233 230 240 250 254 257 261 267 270 272
210 199 188 184 181 179 182 190 191 189 191 192 188 184 181 173 166 176 189 238 246 180 165 196 204 213 214 206 176 162 214 209 193 196 188 183 184 178 171 175 203 238 213 193 223 250 171 112 146 156 160 176 201 224 203 204 242 246 225 243 252 272 307 304 317 317 292 302 208 202 291 285 265 256 240 214 234 263 254 230 241 254 256 249 253 265 272 275
215 220 212 196 183 180 181 189 195 193 192 193 190 182 178 171 164 168 181 250 245 167 148 171 187 193 191 182 172 171 200 167 170 187 184 184 185 182 195 177 165 230 159 150 228 221 137 161 178 166 172 179 203 227 191 193 231 250 25 353 258 239 264 276 309 277 285 319 277 197 218 270 277 258 223 212 232 265 268 255 254 259 261 259 256 256 260 268
211 212 224 221 197 182 183 190 197 195 192 192 189 181 172 168 164 159 190 243 208 144 145 163 173 180 166 164 174 178 124 140 156 178 179 185 183 184 222 206 190 195 167 181 223 183 132 177 186 180 188 202 205 250 166 193 219 360 45 17 80 96 304 211 279 279 296 318 284 191 173 252 283 270 207 211 221 234 252 259 259 258 260 262 252 242 255 270
214 212 219 227 216 192 190 194 195 195 195 191 185 177 167 163 160 159 223 236 154 121 134 154 163 172 159 161 175 166 130 141 173 168 172 184 181 177 232 213 211 197 177 208 236 56 57 192 197 192 203 211 144 49 33 206 200 135 136 90 86 95 75 125 260 291 301 283 270 182 166 243 289 274 191 189 207 211 239 260 254 247 250 247 232 250 272 282
215 217 217 219 213 203 202 200 188 187 190 187 180 171 163 161 163 191 209 208 172 125 108 146 163 166 160 164 180 178 165 116 87 143 157 181 182 184 193 166 202 189 167 233 253 98 73 48 311 214 216 126 103 69 23 25 120 142 150 122 108 138 131 192 241 281 268 264 256 172 172 201 288 274 178 168 199 206 222 246 237 236 242 232 234 266 288 292
216 217 218 218 215 210 207 201 186 180 180 177 171 165 162 160 185 212 198 122 194 148 125 155 160 160 170 174 175 178 176 133 137 153 152 162 177 186 176 156 167 185 186 236 223 152 135 151 146 155 123 114 112 88 45 50 133 155 166 165 182 202 180 210 206 177 238 253 248 138 172 198 243 254 160 169 202 211 218 236 241 252 265 256 259 281 292 280
221 217 217 220 221 218 210 200 188 180 173 168 167 164 162 169 222 227 197 95 154 176 156 170 167 166 181 184 177 171 169 159 165 174 170 171 182 184 190 190 170 178 220 218 196 154 190 198 140 113 140 171 158 116 89 80 181 204 199 181 213 228 206 227 209 192 235 236 120 114 161 220 241 253 234 216 222 220 222 235 247 263 275 274 273 277 277 265
229 223 220 219 221 218 210 201 193 185 172 166 167 166 168 197 201 214 200 162 162 165 138 150 164 171 178 184 182 166 168 174 173 183 182 180 195 198 204 208 189 197 234 199 184 168 190 197 151 146 172 201 201 173 156 180 191 199 197 184 204 218 224 238 221 221 246 218 130 139 150 245 261 270 244 236 234 228 233 239 242 253 262 268 271 270 269 262
239 236 226 221 221 218 209 199 195 191 175 166 164 170 200 213 203 203 208 195 133 88 106 134 152 167 177 182 175 162 168 184 170 174 181 182 203 209 208 214 206 215 243 191 189 186 207 236 176 173 162 178 200 220 190 167 179 199 205 202 215 222 235 246 239 248 262 280 150 160 161 237 260 9 218 239 246 237 240 242 235 244 255 261 264 265 267 264
234 242 228 217 217 217 208 197 195 193 179 168 161 186 196 207 211 206 205 176 128 109 115 134 142 162 180 181 166 169 171 197 177 179 185 190 209 207 200 208 206 207 204 204 202 184 215 239 158 146 143 165 184 222 179 143 174 198 198 220 234 238 247 263 279 267 316 325 251 195 227 248 255 298 247 200 293 230 232 233 226 236 249 254 258 259 262 264
223 233 229 217 212 213 210 201 198 194 182 172 169 200 202 211 213 207 182 140 139 132 124 137 148 168 182 176 195 188 165 70 173 183 200 205 224 220 210 207 198 199 199 197 190 172 211 236 116 106 133 166 181 193 162 178 195 171 173 207 224 18 294 255 241 99 88 279 257 219 252 265 274 276 231 191 211 220 211 215 219 232 244 249 253 255 257 260
213 219 229 227 219 218 213 206 206 199 187 180 188 196 209 224 215 203 163 142 141 138 138 158 172 182 184 178 194 190 174 144 169 186 197 195 226 223 217 217 199 199 204 205 224 215 208 240 152 170 169 165 25 31 106 342 25 157 190 188 118 46 330 248 251 240 218 252 260 238 254 264 270 274 198 185 215 227 221 221 222 229 239 245 251 254 256 257
211 214 224 230 231 229 219 212 208 196 183 180 212 206 214 224 209 177 161 150 144 149 167 189 179 187 188 181 186 179 173 171 174 191 192 179 218 211 201 208 202 201 204 207 224 203 194 225 208 137 154 125 96 130 194 180 108 318 287 161 142 228 221 204 224 243 240 246 260 260 264 264 246 245 216 200 211 218 223 225 221 227 235 240 248 254 256 255
212 218 227 230 227 229 229 222 206 186 172 172 206 210 214 211 186 120 148 164 164 171 193 200 192 195 193 185 171 164 177 184 170 182 197 184 204 199 188 191 198 202 200 199 210 170 177 221 222 44 360 118 132 201 205 176 146 4 303 220 199 255 235 214 211 225 244 245 256 273 275 265 243 240 242 231 220 213 218 221 213 223 235 239 245 252 254 256
211 218 241 230 216 215 224 223 201 180 166 191 202 208 211 198 155 112 128 168 185 191 207 210 205 201 197 191 171 158 183 198 177 182 201 187 194 201 188 187 188 192 192 193 204 196 169 216 219 128 55 180 182 203 204 187 168 178 218 211 197 192 242 280 242 224 242 250 256 275 275 269 261 242 239 236 229 218 212 212 209 220 234 239 243 251 255 256
213 229 244 214 204 203 204 205 194 174 153 215 217 238 231 222 184 166 162 112 221 256 249 226 217 209 199 192 184 167 175 198 192 196 205 193 206 218 185 186 180 164 174 189 203 205 192 205 206 166 178 210 209 201 207 202 187 191 201 204 204 194 183 223 229 210 205 250 251 263 274 272 263 122 222 224 213 209 195 190 209 225 231 237 245 254 259 251
213 228 231 201 200 194 189 188 161 134 182 216 206 209 217 263 252 200 211 264 345 336 317 272 241 221 208 201 198 176 166 192 197 198 213 207 213 216 179 180 175 158 162 185 198 199 193 198 215 207 196 204 183 89 63 292 250 233 226 219 213 197 191 211 218 191 174 225 248 260 270 271 267 97 152 184 130 164 179 191 226 235 228 231 241 251 256 239
217 223 214 198 202 191 184 187 153 149 205 231 194 199 211 240 258 202 230 227 175 234 222 230 259 234 218 211 206 182 170 192 200 200 214 218 218 215 180 178 174 163 168 189 187 181 171 196 223 225 216 179 119 107 116 53 276 255 249 231 224 215 209 214 229 214 189 201 221 231 249 260 278 84 91 99 110 141 184 222 237 232 227 233 238 247 248 228
225 231 226 215 206 194 188 189 173 181 196 177 193 214 208 227 249 212 210 209 195 171 189 213 247 260 239 228 217 192 180 189 203 204 213 219 216 190 174 180 179 172 181 191 172 161 164 194 209 221 230 209 184 198 209 180 188 236 237 210 216 220 208 180 359 252 230 220 218 221 244 254 259 91 159 137 141 184 210 227 232 223 223 233 238 244 242 223
225 232 228 223 213 204 205 213 181 185 190 173 188 207 195 213 237 219 218 219 208 206 200 217 218 46 336 302 309 214 197 205 211 205 213 219 199 128 174 183 184 189 197 190 168 164 171 192 187 202 224 219 215 216 199 176 171 214 232 214 210 212 205 195 199 216 234 236 226 220 245 255 251 126 160 188 179 197 202 209 225 226 223 230 241 246 241 224
210 220 215 214 216 214 218 223 209 184 181 180 190 198 192 203 215 210 219 229 217 214 222 248 180 103 55 205 319 263 221 231 236 199 212 216 181 85 191 189 192 200 204 173 163 161 156 206 190 203 222 226 235 229 134 138 161 193 211 207 205 208 208 209 212 218 230 240 238 227 236 256 261 224 173 192 200 203 208 201 210 223 225 231 248 257 250 231
209 216 198 192 214 224 226 222 215 203 180 178 178 185 196 208 208 193 204 213 213 208 215 240 204 198 210 190 203 232 220 239 258 236 221 217 164 75 144 189 209 209 199 172 171 161 114 221 204 215 229 235 247 246 165 148 175 200 203 200 202 205 206 207 218 225 226 233 246 236 225 245 261 251 222 222 219 206 218 214 204 216 228 237 257 268 258 237
212 224 210 199 202 222 224 213 209 211 195 181 186 195 194 204 209 195 195 205 208 199 199 229 218 214 221 209 208 221 211 223 243 237 227 207 155 115 135 165 224 213 195 176 173 155 152 227 218 221 233 241 248 248 217 180 188 200 199 199 200 202 202 206 219 228 226 224 241 245 231 234 254 259 245 237 244 240 235 227 215 219 230 244 260 265 257 243
215 231 221 212 217 225 225 211 205 211 205 188 199 212 201 202 207 205 193 185 203 203 193 207 219 213 217 218 212 218 215 212 226 233 230 206 174 159 177 186 182 203 196 170 162 139 165 229 235 231 241 249 248 247 234 216 216 211 205 204 199 200 202 206 217 225 226 229 240 250 251 246 253 262 258 254 265 267 254 240 231 232 234 241 253 255 254 250
214 222 213 213 232 241 233 214 205 210 209 197 205 215 211 213 211 208 197 179 188 200 195 209 220 206 208 216 213 221 224 217 225 231 221 211 205 185 199 207 133 170 205 162 129 165 182 225 242 233 245 253 250 249 241 233 239 234 222 214 207 205 206 208 217 223 225 235 240 245 255 258 257 262 269 270 269 264 250 238 236 244 244 242 250 255 255 255
215 217 212 214 227 215 212 216 207 210 211 203 208 211 211 217 216 213 206 196 194 186 188 209 219 200 200 212 212 224 227 219 228 236 223 214 218 202 208 198 117 115 191 174 125 143 185 216 242 202 234 247 248 250 242 223 269 264 249 234 220 215 212 209 214 216 218 226 234 240 250 257 259 262 265 267 263 250 243 242 243 257 260 254 255 258 258 257
218 218 217 222 226 207 202 212 210 213 214 202 207 211 212 218 218 216 213 203 204 201 195 202 208 194 200 210 213 224 226 223 230 239 240 235 223 204 198 182 160 154 165 167 123 123 178 206 217 199 218 246 249 248 147 116 156 256 241 232 225 222 221 216 216 218 220 221 226 234 237 245 259 264 256 257 259 250 253 256 252 256 262 261 259 261 262 261